Track COSMOS 2502 now! 10-day predictions COSMOS 2502 is classified as:
1 40358U 14086A 23270.07546507 .00000078 00000-0 10895-3 0 9998 2 40358 67.1499 267.1660 0008470 270.4243 89.5872 13.97561826446738